Location: Cedar Brake
(32.2526°N, 97.8459°W)
Time: 08:03:46
(UTC+00:00)

NOSS 2-1 (C) - Pass Details

Date: 22 April 2026
Orbit: 374 x 1679 km, 63.3° (Epoch: 14 May)

Event Time Altitude Azimuth Distance (km) Brightness Sun altitude
Rises 03:17:24 0° 332° (NNW) 2,544 7.7 -26.0°
Reaches altitude 10° 03:19:15 10° 333° (NNW) 1,776 6.7 -26.4°
Enters shadow 03:22:16 55° 346° (NNW) 746 4.1 -26.9°
